| time (UTC) | temp F | wind direction | speed MPH | gust MPH | rain 1hr in | rain 24hr in | rain mn in | humidity % | barometer mb |
| 20260504120111 | 60 | 165 | 3.0 | 7.0 | 0.00 | 0.00 | 0.00 | 75 | 1010.3 |
| 20260504081553 | 61 | 150 | 4.0 | 8.0 | 0.00 | 0.00 | 0.00 | 69 | 1009.7 |
| 20260504050125 | 62 | 206 | 5.0 | 12.0 | 0.00 | 0.00 | 0.00 | 65 | 1010.9 |
| 20260504044553 | 62 | 181 | 6.0 | 15.0 | 0.00 | 0.00 | 0.00 | 64 | 1011.1 |
| 20260504043059 | 62 | 184 | 5.0 | 14.0 | 0.00 | 0.00 | 0.00 | 64 | 1011.4 |
| 20260504041555 | 62 | 172 | 5.0 | 10.0 | 0.00 | 0.00 | 0.00 | 63 | 1011.6 |
| 20260504040105 | 62 | 184 | 2.0 | 11.0 | 0.00 | 0.00 | 0.00 | 62 | 1011.7 |
| 20260504034556 | 62 | 174 | 3.0 | 10.0 | 0.00 | 0.00 | 0.00 | 60 | 1011.7 |
| 20260504033050 | 62 | 164 | 3.0 | 10.0 | 0.00 | 0.00 | 0.00 | 59 | 1011.9 |
| 20260504031628 | 63 | 193 | 4.0 | 11.0 | 0.00 | 0.00 | 0.00 | 57 | 1011.9 |
| 20260504030053 | 63 | 213 | 4.0 | 14.0 | 0.00 | 0.00 | 0.00 | 56 | 1011.9 |
| 20260504024555 | 63 | 148 | 4.0 | 11.0 | 0.00 | 0.00 | 0.00 | 56 | 1011.8 |
| 20260504023053 | 63 | 143 | 4.0 | 10.0 | 0.00 | 0.00 | 0.00 | 55 | 1011.8 |
| 20260504021602 | 64 | 187 | 3.0 | 9.0 | 0.00 | 0.00 | 0.00 | 54 | 1011.7 |
| 20260504020052 | 64 | 171 | 5.0 | 11.0 | 0.00 | 0.00 | 0.00 | 54 | 1011.6 |
| 20260504014553 | 65 | 182 | 3.0 | 10.0 | 0.00 | 0.00 | 0.00 | 52 | 1011.7 |
| 20260504013059 | 65 | 146 | 5.0 | 11.0 | 0.00 | 0.00 | 0.00 | 51 | 1011.6 |
| 20260504011556 | 66 | 173 | 3.0 | 12.0 | 0.00 | 0.00 | 0.00 | 50 | 1011.5 |
| 20260504010101 | 66 | 165 | 6.0 | 17.0 | 0.00 | 0.00 | 0.00 | 49 | 1011.5 |
| 20260504004555 | 67 | 138 | 6.0 | 16.0 | 0.00 | 0.00 | 0.00 | 49 | 1011.5 |
| 20260504003051 | 68 | 173 | 5.0 | 15.0 | 0.00 | 0.00 | 0.00 | 48 | 1011.5 |
| 20260504001609 | 68 | 205 | 10.0 | 21.0 | 0.00 | 0.00 | 0.00 | 47 | 1011.4 |
| 20260504000106 | 69 | 194 | 7.0 | 23.0 | 0.00 | 0.00 | 0.00 | 46 | 1011.4 |
| 20260503234554 | 69 | 184 | 10.0 | 18.0 | 0.00 | 0.00 | 0.00 | 44 | 1011.6 |
| 20260503233052 | 70 | 200 | 7.0 | 20.0 | 0.00 | 0.00 | 0.00 | 43 | 1011.5 |
| 20260503231558 | 71 | 210 | 7.0 | 18.0 | 0.00 | 0.00 | 0.00 | 42 | 1011.7 |
| 20260503230051 | 71 | 190 | 6.0 | 19.0 | 0.00 | 0.00 | 0.00 | 41 | 1011.7 |
| 20260503224553 | 71 | 128 | 8.0 | 23.0 | 0.00 | 0.00 | 0.00 | 41 | 1011.9 |
| 20260503223054 | 72 | 201 | 9.0 | 22.0 | 0.00 | 0.00 | 0.00 | 40 | 1011.7 |
| 20260503221554 | 72 | 173 | 11.0 | 26.0 | 0.00 | 0.00 | 0.00 | 39 | 1011.8 |
| 20260503220105 | 72 | 143 | 9.0 | 24.0 | 0.00 | 0.00 | 0.00 | 39 | 1012.0 |
| 20260503214556 | 72 | 140 | 8.0 | 25.0 | 0.00 | 0.00 | 0.00 | 37 | 1012.0 |
| 20260503213133 | 72 | 150 | 9.0 | 24.0 | 0.00 | 0.00 | 0.00 | 38 | 1012.4 |
| 20260503211620 | 72 | 152 | 7.0 | 19.0 | 0.00 | 0.00 | 0.00 | 38 | 1012.9 |
| 20260503210052 | 72 | 178 | 6.0 | 16.0 | 0.00 | 0.00 | 0.00 | 37 | 1013.1 |
| 20260503204606 | 72 | 239 | 12.0 | 21.0 | 0.00 | 0.00 | 0.00 | 36 | 1013.7 |
| 20260503203104 | 71 | 175 | 12.0 | 26.0 | 0.00 | 0.00 | 0.00 | 37 | 1013.9 |
| 20260503201554 | 71 | 176 | 8.0 | 22.0 | 0.00 | 0.00 | 0.00 | 36 | 1014.3 |
| 20260503200054 | 71 | 180 | 11.0 | 23.0 | 0.00 | 0.00 | 0.00 | 36 | 1014.7 |
| 20260503194553 | 70 | 178 | 13.0 | 27.0 | 0.00 | 0.00 | 0.00 | 37 | 1015.1 |
| 20260503193053 | 70 | 146 | 10.0 | 20.0 | 0.00 | 0.00 | 0.00 | 37 | 1015.4 |
| 20260503191604 | 70 | 170 | 9.0 | 20.0 | 0.00 | 0.00 | 0.00 | 38 | 1016.0 |
| 20260503190054 | 69 | 190 | 10.0 | 20.0 | 0.00 | 0.00 | 0.00 | 38 | 1016.3 |
| 20260503184607 | 69 | 202 | 10.0 | 22.0 | 0.00 | 0.00 | 0.00 | 40 | 1016.6 |
| 20260503183052 | 68 | 205 | 11.0 | 23.0 | 0.00 | 0.00 | 0.00 | 41 | 1017.0 |
| 20260503181616 | 67 | 152 | 11.0 | 25.0 | 0.00 | 0.00 | 0.00 | 42 | 1017.5 |
| 20260503180053 | 66 | 196 | 10.0 | 22.0 | 0.00 | 0.00 | 0.00 | 44 | 1017.8 |
| 20260503174610 | 66 | 219 | 8.0 | 23.0 | 0.00 | 0.01 | 0.00 | 44 | 1018.0 |
| 20260503173118 | 66 | 150 | 9.0 | 23.0 | 0.00 | 0.01 | 0.00 | 44 | 1018.2 |
| 20260503171553 | 65 | 153 | 14.0 | 27.0 | 0.00 | 0.01 | 0.00 | 45 | 1018.5 |